This demonstration page uses our WeatherBlox Daily Observations layout. Learn more.

Left ArrowRight Arrow

39.95238, -75.16362

Hourly Observations for April 25, 2015

Temp ( °F °C ) Dew Point ( °F °C ) Humidity (%) Winds ( mph kmh ) Pressure ( in mb ) Visibility ( mi km ) Precip ( " mm )
12:54 am 00:54 Mostly Clear 43 6.1 20 -6.7 40 40 N 12 19 29.97 1015 10 16 0.00 0.00
1:54 am 01:54 Mostly Clear 43 6.1 20 -6.7 40 40 NNW 8 13 29.98 1015 10 16 0.00 0.00
2:54 am 02:54 Clear 42 5.6 21 -6.1 43 43 NW 5 7 29.97 1015 10 16 0.00 0.00
3:54 am 03:54 Clear 41 5 21 -6.1 45 45 WNW 5 7 29.97 1015 10 16 0.00 0.00
4:54 am 04:54 Partly Cloudy 41 5 22 -5.6 47 47 W 8 13 29.97 1015 10 16 0.00 0.00
5:54 am 05:54 Partly Cloudy 40 4.4 21 -6.1 47 47 NW 9 15 29.97 1015 10 16 0.00 0.00
6:06 am 06:06 Partly Cloudy 39 4 21 -6 48 48 NW 9 15 29.97 1015 10 16 0.00 0.00
6:54 am 06:54 Mostly Cloudy 41 5 21 -6.1 45 45 WNW 10 17 29.98 1015 10 16 0.00 0.00
7:54 am 07:54 Mostly Cloudy 43 6.1 21 -6.1 42 42 NW 12 19 29.96 1015 10 16 0.00 0.00
8:54 am 08:54 Cloudy 45 7.2 22 -5.6 40 40 NW 10 17 29.96 1015 10 16 0.00 0.00
9:54 am 09:54 Cloudy 46 7.8 22 -5.6 38 38 VRB 6 9 29.96 1014 10 16 0.00 0.00
10:54 am 10:54 Cloudy 47 8.3 22 -5.6 37 37 Calm 29.93 1014 10 16 0.00 0.00
11:54 am 11:54 Cloudy 49 9.4 23 -5 36 36 SW 9 15 29.91 1013 10 16 0.00 0.00
12:54 pm 12:54 Mostly Cloudy 51 10.6 22 -5.6 32 32 SW 9 15 29.87 1012 10 16 0.00 0.00
1:54 pm 13:54 Mostly Cloudy 54 12.2 23 -5 30 30 SW 9 15 29.85 1011 10 16 0.00 0.00
2:54 pm 14:54 Mostly Cloudy 56 13.3 23 -5 28 28 SW 15 24 29.81 1009 10 16 0.00 0.00
3:54 pm 15:54 Mostly Cloudy 57 13.9 23 -5 27 27 SW 12 19 29.78 1008 10 16 0.00 0.00
4:54 pm 16:54 Mostly Cloudy 58 14.4 24 -4.4 27 27 SW 13 20 29.75 1008 10 16 0.00 0.00
5:54 pm 17:54 Mostly Cloudy 57 13.9 24 -4.4 28 28 SW 13 20 29.74 1007 10 16 0.00 0.00
6:54 pm 18:54 Cloudy 56 13.3 25 -3.9 30 30 SW 12 19 29.73 1007 10 16 0.00 0.00
7:54 pm 19:54 Cloudy 53 11.7 27 -2.8 37 37 SSW 12 19 29.74 1007 10 16 0.00 0.00
8:54 pm 20:54 Mostly Cloudy 52 11.1 27 -2.8 38 38 SW 12 19 29.73 1007 10 16 0.00 0.00
9:54 pm 21:54 Mostly Cloudy 51 10.6 29 -1.7 43 43 SW 9 15 29.72 1007 10 16 0.00 0.00
10:54 pm 22:54 Mostly Cloudy 50 10 34 1.1 54 54 SW 8 13 29.72 1006 10 16 0.00 0.00
11:54 pm 23:54 Cloudy 50 10 36 2.2 59 59 WSW 9 15 29.72 1006 10 16 0.00 0.00

Powered by AerisWeather